Home   Weather   Greenwich Borough   Past weeks

Flag for United Kingdom Past Weather in Greenwich Borough, England, United Kingdom — Yesterday and Last 2 Weeks

Now
72 °F

Scattered clouds.


Feels Like: 76 °F
Forecast: 58 / 75 °F
Wind: 8 mph from Southwest

Location: Biggin Hill Airport

Current Time: Aug 31, 2016 at 3:33:35 PM

Latest Report: Aug 31, 2016 at 2:50 PM


Visibility: N/A

Pressure: 30.12 "Hg

Humidity: 61%

Dew Point: 57 °F

Location of Greenwich BoroughLocation

Past Weather in Greenwich Borough — Graph

°F

Greenwich Borough Temperature Yesterday

Maximum temperature yesterday: 75 °F (at 12:50 PM)
Minimum temperature yesterday: 57 °F (at 6:50 AM)
Average temperature yesterday: 71 °F

High & Low Weather Summary for the Past Weeks

 TemperatureHumidityPressure
High88 °F (Aug 24, 3:20 PM)100% (Aug 17, 6:20 AM)30.30 "Hg (Aug 17, 6:20 AM)
Low54 °F (Aug 17, 6:20 AM)36% (Aug 26, 6:20 PM)29.68 "Hg (Aug 19, 4:50 PM)
Average70 °F68%30.03 "Hg
* Reported Aug 16 2:20 PM — Aug 31 2:20 PM, Greenwich Borough, Weather by CustomWeather, © 2016

Note: Actual official high and low records may vary slightly from our data, if they occured in-between our weather recording intervals... More about our weather records

Advertising

Greenwich Borough Weather History for the Previous 24 Hours

Scroll right to see more
 ConditionsComfort  
Time TempWeatherWind HumidityBarometerVisibility
2:20 PM
Wed, Aug 31
70 °FScattered clouds.10 mph60%30.12 "HgN/A
1:50 PM73 °FScattered clouds.9 mph53%30.12 "HgN/A
1:20 PM72 °FScattered clouds.10 mph57%30.15 "HgN/A
12:50 PM70 °FScattered clouds.10 mph57%30.15 "HgN/A
12:20 PM70 °FScattered clouds.9 mph57%30.15 "HgN/A
11:50 AM68 °FScattered clouds.10 mph64%30.15 "HgN/A
11:20 AM66 °FScattered clouds.10 mph68%30.15 "HgN/A
10:50 AM66 °FScattered clouds.9 mph68%30.15 "HgN/A
10:20 AM64 °FPassing clouds.9 mph73%30.15 "HgN/A
9:50 AM66 °FPassing clouds.8 mph64%30.15 "HgN/A
9:20 AM64 °FPassing clouds.9 mph68%30.15 "HgN/A
8:50 AM64 °FPassing clouds.6 mph68%30.15 "HgN/A
8:20 AM63 °FPassing clouds.6 mph73%30.15 "HgN/A
7:50 AM61 °FPassing clouds.5 mph77%30.12 "HgN/A
7:20 AM61 °FPassing clouds.5 mph72%30.12 "HgN/A
6:50 AM59 °FClear.6 mph77%30.12 "Hg10 mi
6:20 AM59 °FClear.5 mph77%30.12 "Hg10 mi
8:20 PM
Tue, Aug 30
66 °FSunny.10 mph64%30.21 "Hg10 mi
7:50 PM66 °FSunny.10 mph64%30.21 "Hg10 mi
7:20 PM68 °FSunny.10 mph60%30.21 "Hg10 mi
6:50 PM70 °FSunny.12 mph57%30.21 "Hg10 mi
6:20 PM72 °FSunny.10 mph53%30.21 "Hg10 mi
5:50 PM73 °FSunny.10 mph50%30.21 "Hg10 mi
5:20 PM73 °FPassing clouds.9 mph50%30.21 "HgN/A
4:50 PM73 °FPassing clouds.8 mph50%30.21 "HgN/A
4:20 PM75 °FPassing clouds.9 mph47%30.24 "HgN/A
3:50 PM75 °FPassing clouds.9 mph41%30.24 "HgN/A
3:20 PM75 °FPassing clouds.8 mph41%30.24 "HgN/A
Weather by CustomWeather, © 2016

See weather overviewHow to use our weather pages